Flag for Mexico Weather past 2 weeks in Ojinaga, Chihuahua, Mexico

Now
27 °F

Clear.


Feels Like: 23 °F
Forecast: 35 / 65 °F
Wind: 3 mph from Northeast

Location: Marfa Municipal Airport

Current Time: Dec 18, 2014 at 4:43:56 AM

Latest Report: Dec 18, 2014 at 4:15 AM


Visibility: 10 mi

Pressure: 30.15 "Hg

Humidity: 80%

Dew point: 21 °F

Location of OjinagaLocation

Historic Weather in Ojinaga — Graph

°F

Ojinaga temperature yesterday

Maximum temperature yesterday: 63 °F (at 11:15 AM)
Minimum temperature yesterday: 30 °F (at 9:55 PM)
Average temperature yesterday: 45 °F

Past Weeks' High & Low Weather Summary

 TemperatureHumidityPressure
High73 °F (Dec 3, 12:35 PM)100% (Dec 9, 1:55 AM)30.46 "Hg (Dec 9, 1:55 AM)
Low25 °F (Dec 18, 3:35 AM)20% (Dec 15, 2:35 PM)29.97 "Hg (Dec 13, 11:55 PM)
Average48 °F67%30.20 "Hg
* Reported Dec 3 3:15 AM — Dec 18 3:35 AM, Ojinaga, Weather by CustomWeather, © 2014

Note: Actual official high and low records may vary slightly from our data, if they occured in-between our weather recording intervals... More about our weather records

Advertising

Ojinaga weather history for previous 24 hours

 ConditionsComfort  
Time TempWeatherWind HumidityBarometerVisibility
3:35 AM
Dec 18
25 °FClear.3 mph80%30.15 "Hg10 mi
3:15 AM28 °FClear.No wind74%30.16 "Hg10 mi
2:55 AM27 °FClear.3 mph86%30.16 "Hg10 mi
2:35 AM28 °FClear.3 mph74%30.15 "Hg10 mi
2:15 AM27 °FClear.6 mph80%30.15 "Hg10 mi
1:55 AM27 °FClear.7 mph80%30.15 "Hg10 mi
1:35 AM28 °FClear.5 mph74%30.15 "Hg10 mi
1:15 AM28 °FClear.3 mph74%30.15 "Hg10 mi
12:55 AM30 °FClear.3 mph75%30.15 "Hg10 mi
12:35 AM30 °FClear.6 mph69%30.15 "Hg10 mi
12:15 AM32 °FClear.6 mph69%30.15 "Hg10 mi
11:55 PM
Dec 17
30 °FClear.7 mph69%30.15 "Hg10 mi
11:35 PM34 °FClear.9 mph65%30.15 "Hg10 mi
11:15 PM34 °FClear.9 mph65%30.16 "Hg10 mi
10:55 PM32 °FClear.6 mph64%30.17 "Hg10 mi
10:35 PM34 °FClear.10 mph65%30.17 "Hg10 mi
10:15 PM32 °FClear.6 mph69%30.17 "Hg10 mi
9:55 PM30 °FClear.5 mph69%30.16 "Hg10 mi
9:35 PM34 °FClear.5 mph60%30.16 "Hg10 mi
9:15 PM34 °FClear.3 mph65%30.16 "Hg10 mi
8:35 PM34 °FClear.8 mph65%30.15 "Hg10 mi
8:15 PM36 °FClear.8 mph56%30.14 "Hg10 mi
7:55 PM36 °FClear.5 mph60%30.14 "Hg10 mi
7:35 PM37 °FClear.3 mph56%30.14 "Hg10 mi
7:15 PM41 °FClear.No wind53%30.13 "Hg10 mi
6:55 PM39 °FClear.No wind48%30.12 "Hg10 mi
6:35 PM43 °FClear.No wind42%30.12 "Hg10 mi
6:15 PM48 °FClear.No wind40%30.11 "Hg10 mi
5:55 PM48 °FClear.3 mph43%30.11 "Hg10 mi
5:35 PM52 °FClear.3 mph35%30.10 "Hg10 mi
4:55 PM54 °FSunny.8 mph33%30.08 "Hg10 mi
4:35 PM57 °FSunny.12 mph29%30.07 "Hg10 mi
4:15 PM59 °FSunny.17 mph27%30.08 "Hg10 mi
3:55 PM59 °FSunny.16 mph27%30.06 "Hg10 mi
3:35 PM61 °FSunny.17 mph27%30.06 "Hg10 mi
3:15 PM61 °FSunny.15 mph25%30.05 "Hg10 mi
2:55 PM61 °FSunny.16 mph25%30.05 "Hg10 mi
2:35 PM63 °FSunny.22 mph22%30.05 "Hg10 mi
2:15 PM63 °FSunny.15 mph25%30.05 "Hg10 mi
1:55 PM63 °FSunny.14 mph25%30.05 "Hg10 mi
1:35 PM63 °FSunny.15 mph25%30.05 "Hg10 mi
1:15 PM63 °FSunny.18 mph27%30.06 "Hg10 mi
12:55 PM63 °FSunny.13 mph27%30.06 "Hg10 mi
12:35 PM61 °FSunny.20 mph29%30.07 "Hg10 mi
12:15 PM63 °FSunny.18 mph27%30.07 "Hg10 mi
11:55 AM63 °FSunny.18 mph27%30.08 "Hg10 mi
11:35 AM63 °FSunny.21 mph25%30.09 "Hg10 mi
11:15 AM63 °FSunny.16 mph27%30.10 "Hg10 mi
10:55 AM61 °FSunny.14 mph36%30.12 "Hg10 mi
10:35 AM59 °FSunny.10 mph42%30.12 "Hg10 mi
10:15 AM57 °FSunny.10 mph51%30.13 "Hg10 mi
9:55 AM52 °FSunny.7 mph72%30.14 "Hg10 mi
9:35 AM48 °FSunny.6 mph82%30.14 "Hg10 mi
9:15 AM48 °FSunny.3 mph76%30.14 "Hg10 mi
8:55 AM46 °FSunny.6 mph82%30.13 "Hg10 mi
8:35 AM45 °FScattered clouds.3 mph81%30.11 "Hg10 mi
8:15 AM43 °FScattered clouds.3 mph87%30.11 "Hg10 mi
7:55 AM39 °FScattered clouds.3 mph93%30.10 "Hg10 mi
7:35 AM36 °FOvercast.5 mph93%30.10 "Hg10 mi
7:15 AM32 °FPartly sunny.6 mph93%30.09 "Hg5 mi
6:55 AM34 °FScattered clouds.No wind87%30.08 "Hg10 mi
6:35 AM34 °FClear.3 mph87%30.09 "Hg10 mi
6:15 AM34 °FClear.5 mph87%30.08 "Hg10 mi
5:55 AM34 °FPassing clouds.3 mph87%30.07 "Hg10 mi
5:35 AM36 °FPassing clouds.6 mph87%30.07 "Hg10 mi
5:15 AM36 °FPassing clouds.No wind93%30.07 "Hg10 mi
4:55 AM36 °FClear.No wind87%30.08 "Hg10 mi
4:35 AM36 °FClear.No wind93%30.07 "Hg10 mi
4:15 AM37 °FClear.6 mph81%30.06 "Hg10 mi
Weather by CustomWeather, © 2014

See weather overviewHow to use our weather pages